Time,TemperatureF,DewpointF,PressureIn,WindDirection,WindDirectionDegrees,WindSpeedMPH,WindSpeedGustMPH,Humidity,HourlyPrecipIn,Conditions,Clouds,dailyrainin,SoftwareType,DateUTC
2013-10-11 00:00:00,44.0,36.0,27.03,South,180,0.0,3.0,74,0.00,,,0.00,Rainwise IP-100,2013-10-11 06:00:00,
2013-10-11 00:06:00,44.0,37.0,27.03,SSE,157,1.0,4.0,75,0.00,,,0.00,Rainwise IP-100,2013-10-11 06:06:00,
2013-10-11 00:18:00,44.0,36.0,27.03,SSE,157,0.0,3.0,74,0.00,,,0.00,Rainwise IP-100,2013-10-11 06:18:00,
2013-10-11 00:30:00,44.0,37.0,27.03,SSE,157,0.0,0.0,75,0.00,,,0.00,Rainwise IP-100,2013-10-11 06:30:00,
2013-10-11 00:35:00,44.0,37.0,27.03,SSE,157,0.0,0.0,76,0.00,,,0.00,Rainwise IP-100,2013-10-11 06:35:00,
2013-10-11 00:40:00,44.0,37.0,27.03,NE,45,0.0,2.0,75,0.00,,,0.00,Rainwise IP-100,2013-10-11 06:40:00,
2013-10-11 00:45:00,44.0,37.0,27.03,NE,45,0.0,0.0,75,0.00,,,0.00,Rainwise IP-100,2013-10-11 06:45:00,
2013-10-11 00:50:00,44.0,37.0,27.03,NE,45,0.0,0.0,76,0.00,,,0.00,Rainwise IP-100,2013-10-11 06:50:00,
2013-10-11 00:56:00,44.0,37.0,27.03,NE,45,0.0,0.0,76,0.00,,,0.00,Rainwise IP-100,2013-10-11 06:56:00,
2013-10-11 01:01:00,43.0,37.0,27.03,SE,135,1.0,0.0,77,0.00,,,0.00,Rainwise IP-100,2013-10-11 07:01:00,
2013-10-11 01:07:00,44.0,37.0,27.03,SE,135,0.0,1.0,76,0.00,,,0.00,Rainwise IP-100,2013-10-11 07:07:00,
2013-10-11 01:18:00,43.0,37.0,27.03,SE,135,0.0,0.0,77,0.00,,,0.00,Rainwise IP-100,2013-10-11 07:18:00,
2013-10-11 01:24:00,43.0,37.0,27.03,West,270,0.0,0.0,77,0.00,,,0.00,Rainwise IP-100,2013-10-11 07:24:00,
2013-10-11 01:30:00,43.0,37.0,27.04,West,270,0.0,2.0,78,0.00,,,0.00,Rainwise IP-100,2013-10-11 07:30:00,
2013-10-11 01:35:00,43.0,37.0,27.04,NNW,337,1.0,4.0,78,0.00,,,0.00,Rainwise IP-100,2013-10-11 07:35:00,
2013-10-11 01:40:00,43.0,37.0,27.05,West,270,6.0,6.0,77,0.00,,,0.00,Rainwise IP-100,2013-10-11 07:40:00,
2013-10-11 01:45:00,43.0,36.0,27.05,NW,315,1.0,6.0,76,0.00,,,0.00,Rainwise IP-100,2013-10-11 07:45:00,
2013-10-11 01:50:00,44.0,37.0,27.05,WSW,247,1.0,6.0,76,0.00,,,0.00,Rainwise IP-100,2013-10-11 07:50:00,
2013-10-11 01:55:00,43.0,37.0,27.05,NNW,337,2.0,5.0,77,0.00,,,0.00,Rainwise IP-100,2013-10-11 07:55:00,
2013-10-11 02:02:00,43.0,36.0,27.05,North,360,4.0,6.0,76,0.00,,,0.00,Rainwise IP-100,2013-10-11 08:02:00,
2013-10-11 02:07:00,44.0,37.0,27.05,West,270,3.0,5.0,76,0.00,,,0.00,Rainwise IP-100,2013-10-11 08:07:00,
2013-10-11 02:12:00,43.0,36.0,27.05,WSW,247,0.0,4.0,76,0.00,,,0.00,Rainwise IP-100,2013-10-11 08:12:00,
2013-10-11 02:17:00,43.0,37.0,27.06,WSW,247,0.0,0.0,77,0.00,,,0.00,Rainwise IP-100,2013-10-11 08:17:00,
2013-10-11 02:22:00,43.0,37.0,27.06,WSW,247,0.0,0.0,78,0.00,,,0.00,Rainwise IP-100,2013-10-11 08:22:00,
2013-10-11 02:27:00,43.0,37.0,27.06,WSW,247,0.0,0.0,78,0.00,,,0.00,Rainwise IP-100,2013-10-11 08:27:00,
2013-10-11 02:32:00,43.0,37.0,27.06,WSW,247,0.0,0.0,78,0.00,,,0.00,Rainwise IP-100,2013-10-11 08:32:00,
2013-10-11 02:37:00,43.0,37.0,27.06,WSW,247,0.0,0.0,78,0.00,,,0.00,Rainwise IP-100,2013-10-11 08:37:00,
2013-10-11 02:42:00,42.0,36.0,27.06,WSW,247,0.0,0.0,79,0.00,,,0.00,Rainwise IP-100,2013-10-11 08:42:00,
2013-10-11 02:47:00,42.0,37.0,27.06,WSW,247,0.0,0.0,80,0.00,,,0.00,Rainwise IP-100,2013-10-11 08:47:00,
2013-10-11 02:56:00,42.0,36.0,27.06,WSW,247,0.0,1.0,78,0.00,,,0.00,Rainwise IP-100,2013-10-11 08:56:00,
2013-10-11 03:08:00,42.0,36.0,27.06,WSW,247,0.0,0.0,79,0.00,,,0.00,Rainwise IP-100,2013-10-11 09:08:00,
2013-10-11 03:13:00,42.0,37.0,27.06,WSW,247,0.0,0.0,80,0.00,,,0.00,Rainwise IP-100,2013-10-11 09:13:00,
2013-10-11 03:18:00,42.0,36.0,27.06,WSW,247,0.0,0.0,79,0.00,,,0.00,Rainwise IP-100,2013-10-11 09:18:00,
2013-10-11 03:23:00,41.0,36.0,27.06,WSW,247,0.0,0.0,82,0.00,,,0.00,Rainwise IP-100,2013-10-11 09:23:00,
2013-10-11 03:28:00,41.0,36.0,27.07,WSW,247,0.0,0.0,81,0.00,,,0.00,Rainwise IP-100,2013-10-11 09:28:00,
2013-10-11 03:33:00,41.0,36.0,27.07,WSW,247,0.0,0.0,82,0.00,,,0.00,Rainwise IP-100,2013-10-11 09:33:00,
2013-10-11 03:38:00,40.0,35.0,27.08,WSW,247,0.0,0.0,81,0.00,,,0.00,Rainwise IP-100,2013-10-11 09:38:00,
2013-10-11 03:43:00,40.0,37.0,27.08,SSE,157,3.0,0.0,86,0.00,,,0.00,Rainwise IP-100,2013-10-11 09:43:00,
2013-10-11 03:48:00,40.0,36.0,27.07,West,270,0.0,3.0,85,0.00,,,0.00,Rainwise IP-100,2013-10-11 09:48:00,
2013-10-11 03:53:00,39.0,35.0,27.07,West,270,0.0,0.0,85,0.00,,,0.00,Rainwise IP-100,2013-10-11 09:53:00,
2013-10-11 03:58:00,39.0,35.0,27.08,West,270,0.0,0.0,85,0.00,,,0.00,Rainwise IP-100,2013-10-11 09:58:00,
2013-10-11 04:03:00,38.0,35.0,27.08,West,270,0.0,0.0,86,0.00,,,0.00,Rainwise IP-100,2013-10-11 10:03:00,
2013-10-11 04:08:00,38.0,35.0,27.08,West,270,0.0,0.0,86,0.00,,,0.00,Rainwise IP-100,2013-10-11 10:08:00,
2013-10-11 04:13:00,38.0,35.0,27.08,West,270,0.0,0.0,88,0.00,,,0.00,Rainwise IP-100,2013-10-11 10:13:00,
2013-10-11 04:18:00,38.0,35.0,27.08,West,270,0.0,0.0,89,0.00,,,0.00,Rainwise IP-100,2013-10-11 10:18:00,
2013-10-11 04:23:00,38.0,36.0,27.08,West,270,0.0,0.0,90,0.00,,,0.00,Rainwise IP-100,2013-10-11 10:23:00,
2013-10-11 04:28:00,38.0,36.0,27.08,West,270,0.0,0.0,90,0.00,,,0.00,Rainwise IP-100,2013-10-11 10:28:00,
2013-10-11 04:33:00,37.0,35.0,27.08,West,270,0.0,0.0,91,0.00,,,0.00,Rainwise IP-100,2013-10-11 10:33:00,
2013-10-11 04:38:00,37.0,35.0,27.09,West,270,0.0,0.0,91,0.00,,,0.00,Rainwise IP-100,2013-10-11 10:38:00,
2013-10-11 04:43:00,37.0,35.0,27.09,West,270,0.0,0.0,91,0.00,,,0.00,Rainwise IP-100,2013-10-11 10:43:00,
2013-10-11 04:48:00,37.0,35.0,27.09,West,270,0.0,0.0,90,0.00,,,0.00,Rainwise IP-100,2013-10-11 10:48:00,
2013-10-11 04:53:00,36.0,33.0,27.09,West,270,0.0,0.0,91,0.00,,,0.00,Rainwise IP-100,2013-10-11 10:53:00,
2013-10-11 04:58:00,36.0,33.0,27.10,West,270,0.0,0.0,91,0.00,,,0.00,Rainwise IP-100,2013-10-11 10:58:00,
2013-10-11 05:03:00,36.0,33.0,27.10,West,270,0.0,0.0,92,0.00,,,0.00,Rainwise IP-100,2013-10-11 11:03:00,
2013-10-11 05:08:00,36.0,35.0,27.10,West,270,0.0,0.0,93,0.00,,,0.00,Rainwise IP-100,2013-10-11 11:08:00,
2013-10-11 05:13:00,35.0,33.0,27.10,West,270,0.0,0.0,94,0.00,,,0.00,Rainwise IP-100,2013-10-11 11:13:00,
2013-10-11 05:18:00,35.0,33.0,27.11,West,270,0.0,0.0,93,0.00,,,0.00,Rainwise IP-100,2013-10-11 11:18:00,
2013-10-11 05:23:00,34.0,33.0,27.11,West,270,0.0,0.0,94,0.00,,,0.00,Rainwise IP-100,2013-10-11 11:23:00,
2013-10-11 05:28:00,34.0,33.0,27.11,West,270,0.0,0.0,95,0.00,,,0.00,Rainwise IP-100,2013-10-11 11:28:00,
2013-10-11 05:33:00,34.0,33.0,27.11,West,270,0.0,0.0,96,0.00,,,0.00,Rainwise IP-100,2013-10-11 11:33:00,
2013-10-11 05:38:00,35.0,33.0,27.11,West,270,0.0,0.0,96,0.00,,,0.00,Rainwise IP-100,2013-10-11 11:38:00,
2013-10-11 05:43:00,34.0,33.0,27.11,West,270,0.0,0.0,96,0.00,,,0.00,Rainwise IP-100,2013-10-11 11:43:00,
2013-10-11 05:48:00,35.0,33.0,27.12,West,270,0.0,0.0,94,0.00,,,0.00,Rainwise IP-100,2013-10-11 11:48:00,
2013-10-11 05:53:00,34.0,33.0,27.12,West,270,0.0,0.0,96,0.00,,,0.00,Rainwise IP-100,2013-10-11 11:53:00,
2013-10-11 05:58:00,34.0,33.0,27.13,West,270,0.0,0.0,96,0.00,,,0.00,Rainwise IP-100,2013-10-11 11:58:00,
2013-10-11 06:03:00,34.0,33.0,27.13,West,270,0.0,0.0,97,0.00,,,0.00,Rainwise IP-100,2013-10-11 12:03:00,
2013-10-11 06:08:00,34.0,33.0,27.12,West,270,0.0,0.0,96,0.00,,,0.00,Rainwise IP-100,2013-10-11 12:08:00,
2013-10-11 06:13:00,34.0,33.0,27.12,West,270,0.0,0.0,96,0.00,,,0.00,Rainwise IP-100,2013-10-11 12:13:00,
2013-10-11 06:18:00,34.0,33.0,27.13,West,270,0.0,2.0,97,0.00,,,0.00,Rainwise IP-100,2013-10-11 12:18:00,
2013-10-11 06:23:00,33.0,33.0,27.13,West,270,0.0,0.0,99,0.00,,,0.00,Rainwise IP-100,2013-10-11 12:23:00,
2013-10-11 06:28:00,33.0,32.0,27.13,West,270,0.0,0.0,97,0.00,,,0.00,Rainwise IP-100,2013-10-11 12:28:00,
2013-10-11 06:33:00,33.0,32.0,27.13,West,270,0.0,0.0,97,0.00,,,0.00,Rainwise IP-100,2013-10-11 12:33:00,
2013-10-11 06:38:00,33.0,32.0,27.14,West,270,0.0,0.0,97,0.00,,,0.00,Rainwise IP-100,2013-10-11 12:38:00,
2013-10-11 06:43:00,33.0,33.0,27.14,West,270,0.0,0.0,98,0.00,,,0.00,Rainwise IP-100,2013-10-11 12:43:00,
2013-10-11 06:48:00,33.0,33.0,27.14,West,270,0.0,0.0,98,0.00,,,0.00,Rainwise IP-100,2013-10-11 12:48:00,
2013-10-11 06:53:00,32.0,32.0,27.14,West,270,0.0,0.0,99,0.00,,,0.00,Rainwise IP-100,2013-10-11 12:53:00,
2013-10-11 06:58:00,33.0,33.0,27.15,West,270,0.0,0.0,100,0.00,,,0.00,Rainwise IP-100,2013-10-11 12:58:00,
2013-10-11 07:03:00,33.0,33.0,27.15,West,270,0.0,0.0,100,0.00,,,0.00,Rainwise IP-100,2013-10-11 13:03:00,
2013-10-11 07:08:00,34.0,35.0,27.14,West,270,0.0,0.0,100,0.00,,,0.00,Rainwise IP-100,2013-10-11 13:08:00,
2013-10-11 07:13:00,34.0,35.0,27.14,West,270,0.0,0.0,100,0.00,,,0.00,Rainwise IP-100,2013-10-11 13:13:00,
2013-10-11 07:18:00,34.0,35.0,27.14,West,270,0.0,0.0,100,0.00,,,0.00,Rainwise IP-100,2013-10-11 13:18:00,
2013-10-11 07:23:00,34.0,35.0,27.14,West,270,0.0,1.0,100,0.00,,,0.00,Rainwise IP-100,2013-10-11 13:23:00,
2013-10-11 07:28:00,35.0,35.0,27.13,West,270,0.0,2.0,100,0.00,,,0.00,Rainwise IP-100,2013-10-11 13:28:00,
2013-10-11 07:33:00,34.0,35.0,27.13,West,270,0.0,0.0,100,0.00,,,0.00,Rainwise IP-100,2013-10-11 13:33:00,
2013-10-11 07:38:00,35.0,35.0,27.13,South,180,4.0,4.0,99,0.00,,,0.00,Rainwise IP-100,2013-10-11 13:38:00,
2013-10-11 07:43:00,35.0,35.0,27.13,NW,315,4.0,4.0,100,0.00,,,0.00,Rainwise IP-100,2013-10-11 13:43:00,
2013-10-11 07:48:00,35.0,35.0,27.14,SE,135,3.0,5.0,99,0.00,,,0.00,Rainwise IP-100,2013-10-11 13:48:00,
2013-10-11 07:53:00,35.0,35.0,27.14,SE,135,0.0,3.0,100,0.00,,,0.00,Rainwise IP-100,2013-10-11 13:53:00,
2013-10-11 07:58:00,35.0,35.0,27.15,ESE,112,0.0,4.0,99,0.00,,,0.00,Rainwise IP-100,2013-10-11 13:58:00,
2013-10-11 08:03:00,35.0,35.0,27.15,ESE,112,0.0,0.0,100,0.00,,,0.00,Rainwise IP-100,2013-10-11 14:03:00,
2013-10-11 08:08:00,35.0,35.0,27.15,ESE,112,0.0,0.0,99,0.00,,,0.00,Rainwise IP-100,2013-10-11 14:08:00,
2013-10-11 08:13:00,35.0,35.0,27.15,NW,315,1.0,3.0,99,0.00,,,0.00,Rainwise IP-100,2013-10-11 14:13:00,
2013-10-11 08:18:00,36.0,36.0,27.15,NW,315,0.0,2.0,99,0.00,,,0.00,Rainwise IP-100,2013-10-11 14:18:00,
2013-10-11 08:23:00,36.0,36.0,27.15,NW,315,0.0,0.0,99,0.00,,,0.00,Rainwise IP-100,2013-10-11 14:23:00,
2013-10-11 08:28:00,36.0,36.0,27.15,NW,315,0.0,0.0,98,0.00,,,0.00,Rainwise IP-100,2013-10-11 14:28:00,
2013-10-11 08:33:00,36.0,36.0,27.15,NW,315,0.0,0.0,99,0.00,,,0.00,Rainwise IP-100,2013-10-11 14:33:00,
2013-10-11 08:38:00,36.0,36.0,27.15,NW,315,0.0,0.0,98,0.00,,,0.00,Rainwise IP-100,2013-10-11 14:38:00,
2013-10-11 08:43:00,36.0,36.0,27.15,NW,315,0.0,0.0,99,0.00,,,0.00,Rainwise IP-100,2013-10-11 14:43:00,
2013-10-11 08:50:00,37.0,37.0,27.15,SE,135,1.0,4.0,98,0.00,,,0.00,Rainwise IP-100,2013-10-11 14:50:00,
2013-10-11 08:55:00,37.0,36.0,27.15,NW,315,1.0,4.0,97,0.00,,,0.00,Rainwise IP-100,2013-10-11 14:55:00,
2013-10-11 09:00:00,37.0,36.0,27.15,NW,315,0.0,1.0,96,0.00,,,0.00,Rainwise IP-100,2013-10-11 15:00:00,
2013-10-11 09:05:00,37.0,36.0,27.15,NW,315,2.0,2.0,96,0.00,,,0.00,Rainwise IP-100,2013-10-11 15:05:00,
2013-10-11 09:10:00,37.0,36.0,27.15,NW,315,0.0,2.0,95,0.00,,,0.00,Rainwise IP-100,2013-10-11 15:10:00,
2013-10-11 09:15:00,38.0,36.0,27.15,NW,315,0.0,1.0,93,0.00,,,0.00,Rainwise IP-100,2013-10-11 15:15:00,
2013-10-11 09:20:00,38.0,36.0,27.15,NW,315,2.0,3.0,93,0.00,,,0.00,Rainwise IP-100,2013-10-11 15:20:00,
2013-10-11 09:25:00,38.0,36.0,27.15,NW,315,1.0,3.0,91,0.00,,,0.00,Rainwise IP-100,2013-10-11 15:25:00,
2013-10-11 09:30:00,38.0,36.0,27.15,WNW,292,0.0,3.0,90,0.00,,,0.00,Rainwise IP-100,2013-10-11 15:30:00,
2013-10-11 09:35:00,39.0,36.0,27.15,South,180,0.0,3.0,89,0.00,,,0.00,Rainwise IP-100,2013-10-11 15:35:00,
2013-10-11 09:40:00,39.0,36.0,27.16,WNW,292,2.0,4.0,88,0.00,,,0.00,Rainwise IP-100,2013-10-11 15:40:00,
2013-10-11 09:45:00,39.0,36.0,27.16,WNW,292,0.0,3.0,86,0.00,,,0.00,Rainwise IP-100,2013-10-11 15:45:00,
2013-10-11 09:50:00,40.0,36.0,27.16,WNW,292,3.0,4.0,85,0.00,,,0.00,Rainwise IP-100,2013-10-11 15:50:00,
2013-10-11 09:55:00,40.0,36.0,27.16,WSW,247,3.0,4.0,84,0.00,,,0.00,Rainwise IP-100,2013-10-11 15:55:00,
2013-10-11 10:00:00,40.0,36.0,27.16,West,270,0.0,4.0,83,0.00,,,0.00,Rainwise IP-100,2013-10-11 16:00:00,
2013-10-11 10:05:00,40.0,36.0,27.16,West,270,0.0,3.0,83,0.00,,,0.00,Rainwise IP-100,2013-10-11 16:05:00,
2013-10-11 10:10:00,41.0,36.0,27.16,West,270,3.0,3.0,81,0.00,,,0.00,Rainwise IP-100,2013-10-11 16:10:00,
2013-10-11 10:15:00,41.0,36.0,27.16,WNW,292,3.0,6.0,80,0.00,,,0.00,Rainwise IP-100,2013-10-11 16:15:00,
2013-10-11 10:20:00,42.0,37.0,27.17,NNW,337,2.0,4.0,80,0.00,,,0.00,Rainwise IP-100,2013-10-11 16:20:00,
2013-10-11 10:25:00,42.0,36.0,27.17,West,270,0.0,6.0,78,0.00,,,0.00,Rainwise IP-100,2013-10-11 16:25:00,
2013-10-11 10:30:00,42.0,36.0,27.16,West,270,1.0,3.0,76,0.00,,,0.00,Rainwise IP-100,2013-10-11 16:30:00,
2013-10-11 10:35:00,42.0,35.0,27.16,WNW,292,5.0,7.0,74,0.00,,,0.00,Rainwise IP-100,2013-10-11 16:35:00,
2013-10-11 10:40:00,42.0,35.0,27.17,North,360,3.0,6.0,75,0.00,,,0.00,Rainwise IP-100,2013-10-11 16:40:00,
2013-10-11 10:45:00,43.0,36.0,27.17,North,360,3.0,5.0,75,0.00,,,0.00,Rainwise IP-100,2013-10-11 16:45:00,
2013-10-11 10:51:00,44.0,36.0,27.16,NNW,337,6.0,6.0,72,0.00,,,0.00,Rainwise IP-100,2013-10-11 16:51:00,
2013-10-11 10:56:00,45.0,36.0,27.16,NW,315,2.0,6.0,70,0.00,,,0.00,Rainwise IP-100,2013-10-11 16:56:00,
2013-10-11 11:01:00,44.0,35.0,27.16,West,270,4.0,7.0,68,0.00,,,0.00,Rainwise IP-100,2013-10-11 17:01:00,
2013-10-11 11:06:00,44.0,35.0,27.16,South,180,3.0,5.0,69,0.00,,,0.00,Rainwise IP-100,2013-10-11 17:06:00,
2013-10-11 11:11:00,45.0,36.0,27.16,NW,315,6.0,6.0,69,0.00,,,0.00,Rainwise IP-100,2013-10-11 17:11:00,
2013-10-11 11:16:00,46.0,36.0,27.16,WNW,292,0.0,6.0,67,0.00,,,0.00,Rainwise IP-100,2013-10-11 17:16:00,
2013-10-11 11:21:00,47.0,37.0,27.16,NW,315,2.0,6.0,69,0.00,,,0.00,Rainwise IP-100,2013-10-11 17:21:00,
2013-10-11 11:26:00,48.0,37.0,27.16,NNW,337,1.0,5.0,64,0.00,,,0.00,Rainwise IP-100,2013-10-11 17:26:00,
2013-10-11 11:31:00,49.0,36.0,27.15,WNW,292,0.0,5.0,61,0.00,,,0.00,Rainwise IP-100,2013-10-11 17:31:00,
2013-10-11 11:36:00,49.0,36.0,27.15,NW,315,5.0,6.0,61,0.00,,,0.00,Rainwise IP-100,2013-10-11 17:36:00,
2013-10-11 11:42:00,49.0,36.0,27.17,South,180,5.0,6.0,59,0.00,,,0.00,Rainwise IP-100,2013-10-11 17:42:00,
2013-10-11 11:48:00,49.0,36.0,27.17,West,270,0.0,7.0,59,0.00,,,0.00,Rainwise IP-100,2013-10-11 17:48:00,
2013-10-11 11:55:00,49.0,35.0,27.17,NE,45,3.0,6.0,57,0.00,,,0.00,Rainwise IP-100,2013-10-11 17:55:00,
2013-10-11 12:00:00,51.0,37.0,27.16,NNW,337,3.0,5.0,58,0.00,,,0.00,Rainwise IP-100,2013-10-11 18:00:00,
2013-10-11 12:05:00,52.0,36.0,27.16,NE,45,5.0,6.0,54,0.00,,,0.00,Rainwise IP-100,2013-10-11 18:05:00,
2013-10-11 12:10:00,52.0,36.0,27.15,NNW,337,5.0,7.0,53,0.00,,,0.00,Rainwise IP-100,2013-10-11 18:10:00,
2013-10-11 12:15:00,52.0,33.0,27.15,NW,315,5.0,7.0,49,0.00,,,0.00,Rainwise IP-100,2013-10-11 18:15:00,
2013-10-11 12:20:00,52.0,32.0,27.15,NW,315,3.0,6.0,46,0.00,,,0.00,Rainwise IP-100,2013-10-11 18:20:00,
2013-10-11 12:25:00,53.0,31.0,27.15,South,180,3.0,6.0,43,0.00,,,0.00,Rainwise IP-100,2013-10-11 18:25:00,
2013-10-11 12:30:00,54.0,32.0,27.15,WNW,292,4.0,5.0,44,0.00,,,0.00,Rainwise IP-100,2013-10-11 18:30:00,
2013-10-11 12:35:00,54.0,32.0,27.15,WSW,247,2.0,9.0,44,0.00,,,0.00,Rainwise IP-100,2013-10-11 18:35:00,
2013-10-11 12:40:00,54.0,32.0,27.15,West,270,6.0,6.0,44,0.00,,,0.00,Rainwise IP-100,2013-10-11 18:40:00,
2013-10-11 12:45:00,54.0,32.0,27.15,NNW,337,6.0,8.0,43,0.00,,,0.00,Rainwise IP-100,2013-10-11 18:45:00,
2013-10-11 12:50:00,53.0,31.0,27.16,North,360,5.0,7.0,43,0.00,,,0.00,Rainwise IP-100,2013-10-11 18:50:00,
2013-10-11 12:55:00,52.0,31.0,27.16,ENE,67,2.0,7.0,43,0.00,,,0.00,Rainwise IP-100,2013-10-11 18:55:00,
2013-10-11 13:00:00,52.0,32.0,27.15,NW,315,0.0,4.0,45,0.00,,,0.00,Rainwise IP-100,2013-10-11 19:00:00,
2013-10-11 13:05:00,52.0,31.0,27.15,NW,315,0.0,6.0,44,0.00,,,0.00,Rainwise IP-100,2013-10-11 19:05:00,
2013-10-11 13:10:00,53.0,31.0,27.15,WNW,292,3.0,3.0,43,0.00,,,0.00,Rainwise IP-100,2013-10-11 19:10:00,
2013-10-11 13:15:00,53.0,31.0,27.15,West,270,0.0,6.0,43,0.00,,,0.00,Rainwise IP-100,2013-10-11 19:15:00,
2013-10-11 13:20:00,53.0,29.0,27.14,NNW,337,4.0,5.0,41,0.00,,,0.00,Rainwise IP-100,2013-10-11 19:20:00,
2013-10-11 13:25:00,53.0,29.0,27.14,WNW,292,3.0,8.0,39,0.00,,,0.00,Rainwise IP-100,2013-10-11 19:25:00,
2013-10-11 13:30:00,53.0,28.0,27.14,NW,315,0.0,5.0,38,0.00,,,0.00,Rainwise IP-100,2013-10-11 19:30:00,
2013-10-11 13:35:00,53.0,29.0,27.14,SW,225,2.0,6.0,40,0.00,,,0.00,Rainwise IP-100,2013-10-11 19:35:00,
2013-10-11 13:40:00,52.0,29.0,27.13,West,270,2.0,5.0,41,0.00,,,0.00,Rainwise IP-100,2013-10-11 19:40:00,
2013-10-11 13:45:00,54.0,29.0,27.13,WSW,247,4.0,8.0,39,0.00,,,0.00,Rainwise IP-100,2013-10-11 19:45:00,
2013-10-11 13:50:00,55.0,29.0,27.12,West,270,2.0,7.0,37,0.00,,,0.00,Rainwise IP-100,2013-10-11 19:50:00,
2013-10-11 13:55:00,54.0,29.0,27.12,NNW,337,11.0,11.0,37,0.00,,,0.00,Rainwise IP-100,2013-10-11 19:55:00,
2013-10-11 14:00:00,53.0,28.0,27.14,SW,225,1.0,12.0,38,0.00,,,0.00,Rainwise IP-100,2013-10-11 20:00:00,
2013-10-11 14:05:00,53.0,28.0,27.14,SSE,157,7.0,7.0,38,0.00,,,0.00,Rainwise IP-100,2013-10-11 20:05:00,
2013-10-11 14:10:00,54.0,29.0,27.13,SE,135,3.0,7.0,39,0.00,,,0.00,Rainwise IP-100,2013-10-11 20:10:00,
2013-10-11 14:15:00,56.0,29.0,27.13,SSE,157,6.0,6.0,36,0.00,,,0.00,Rainwise IP-100,2013-10-11 20:15:00,
2013-10-11 14:20:00,55.0,28.0,27.13,South,180,6.0,8.0,35,0.00,,,0.00,Rainwise IP-100,2013-10-11 20:20:00,
2013-10-11 14:25:00,55.0,29.0,27.13,NNW,337,5.0,7.0,36,0.00,,,0.00,Rainwise IP-100,2013-10-11 20:25:00,
2013-10-11 14:30:00,55.0,29.0,27.14,North,360,7.0,7.0,36,0.00,,,0.00,Rainwise IP-100,2013-10-11 20:30:00,
2013-10-11 14:35:00,55.0,29.0,27.14,NNE,22,1.0,8.0,36,0.00,,,0.00,Rainwise IP-100,2013-10-11 20:35:00,
2013-10-11 14:40:00,55.0,29.0,27.13,NNW,337,1.0,4.0,36,0.00,,,0.00,Rainwise IP-100,2013-10-11 20:40:00,
2013-10-11 14:45:00,56.0,28.0,27.13,SSE,157,8.0,8.0,34,0.00,,,0.00,Rainwise IP-100,2013-10-11 20:45:00,
2013-10-11 14:50:00,55.0,28.0,27.13,WNW,292,6.0,9.0,35,0.00,,,0.00,Rainwise IP-100,2013-10-11 20:50:00,
2013-10-11 14:55:00,56.0,29.0,27.13,WSW,247,6.0,9.0,35,0.00,,,0.00,Rainwise IP-100,2013-10-11 20:55:00,
2013-10-11 15:00:00,56.0,28.0,27.13,WSW,247,6.0,9.0,34,0.00,,,0.00,Rainwise IP-100,2013-10-11 21:00:00,
2013-10-11 15:05:00,55.0,28.0,27.13,WSW,247,1.0,11.0,33,0.00,,,0.00,Rainwise IP-100,2013-10-11 21:05:00,
2013-10-11 15:10:00,55.0,28.0,27.15,NW,315,6.0,12.0,34,0.00,,,0.00,Rainwise IP-100,2013-10-11 21:10:00,
2013-10-11 15:15:00,55.0,28.0,27.15,West,270,0.0,8.0,35,0.00,,,0.00,Rainwise IP-100,2013-10-11 21:15:00,
2013-10-11 15:20:00,55.0,28.0,27.15,WNW,292,9.0,13.0,34,0.00,,,0.00,Rainwise IP-100,2013-10-11 21:20:00,
2013-10-11 15:25:00,54.0,28.0,27.15,NNW,337,4.0,10.0,35,0.00,,,0.00,Rainwise IP-100,2013-10-11 21:25:00,
2013-10-11 15:30:00,54.0,28.0,27.15,NNW,337,9.0,10.0,35,0.00,,,0.00,Rainwise IP-100,2013-10-11 21:30:00,
2013-10-11 15:35:00,54.0,26.0,27.15,NNW,337,4.0,10.0,34,0.00,,,0.00,Rainwise IP-100,2013-10-11 21:35:00,
2013-10-11 15:40:00,54.0,26.0,27.14,NW,315,6.0,11.0,34,0.00,,,0.00,Rainwise IP-100,2013-10-11 21:40:00,
2013-10-11 15:45:00,54.0,26.0,27.14,West,270,8.0,15.0,34,0.00,,,0.00,Rainwise IP-100,2013-10-11 21:45:00,
2013-10-11 15:50:00,54.0,26.0,27.14,WSW,247,3.0,9.0,34,0.00,,,0.00,Rainwise IP-100,2013-10-11 21:50:00,
2013-10-11 15:55:00,53.0,26.0,27.14,West,270,6.0,13.0,34,0.00,,,0.00,Rainwise IP-100,2013-10-11 21:55:00,
2013-10-11 16:00:00,54.0,26.0,27.14,NNW,337,6.0,13.0,34,0.00,,,0.00,Rainwise IP-100,2013-10-11 22:00:00,
2013-10-11 16:05:00,53.0,26.0,27.14,West,270,7.0,15.0,34,0.00,,,0.00,Rainwise IP-100,2013-10-11 22:05:00,
2013-10-11 16:10:00,54.0,24.0,27.14,West,270,2.0,16.0,32,0.00,,,0.00,Rainwise IP-100,2013-10-11 22:10:00,
2013-10-11 16:15:00,55.0,26.0,27.14,NW,315,8.0,15.0,31,0.00,,,0.00,Rainwise IP-100,2013-10-11 22:15:00,
2013-10-11 16:20:00,56.0,26.0,27.14,WSW,247,7.0,19.0,32,0.00,,,0.00,Rainwise IP-100,2013-10-11 22:20:00,
2013-10-11 16:25:00,55.0,26.0,27.14,West,270,8.0,14.0,32,0.00,,,0.00,Rainwise IP-100,2013-10-11 22:25:00,
2013-10-11 16:30:00,55.0,28.0,27.15,WNW,292,6.0,11.0,33,0.00,,,0.00,Rainwise IP-100,2013-10-11 22:30:00,
2013-10-11 16:35:00,53.0,26.0,27.15,WSW,247,3.0,12.0,35,0.00,,,0.00,Rainwise IP-100,2013-10-11 22:35:00,
2013-10-11 16:40:00,54.0,26.0,27.15,WNW,292,10.0,14.0,34,0.00,,,0.00,Rainwise IP-100,2013-10-11 22:40:00,
2013-10-11 16:45:00,54.0,26.0,27.15,SW,225,3.0,15.0,33,0.00,,,0.00,Rainwise IP-100,2013-10-11 22:45:00,
2013-10-11 16:50:00,54.0,26.0,27.15,West,270,2.0,9.0,34,0.00,,,0.00,Rainwise IP-100,2013-10-11 22:50:00,
2013-10-11 16:55:00,53.0,26.0,27.15,West,270,4.0,9.0,34,0.00,,,0.00,Rainwise IP-100,2013-10-11 22:55:00,
2013-10-11 17:00:00,53.0,26.0,27.15,WNW,292,6.0,10.0,34,0.00,,,0.00,Rainwise IP-100,2013-10-11 23:00:00,
2013-10-11 17:05:00,52.0,24.0,27.15,WSW,247,5.0,10.0,34,0.00,,,0.00,Rainwise IP-100,2013-10-11 23:05:00,
2013-10-11 17:10:00,52.0,24.0,27.14,NW,315,5.0,9.0,34,0.00,,,0.00,Rainwise IP-100,2013-10-11 23:10:00,
2013-10-11 17:15:00,52.0,26.0,27.14,SW,225,2.0,10.0,35,0.00,,,0.00,Rainwise IP-100,2013-10-11 23:15:00,
2013-10-11 17:20:00,52.0,24.0,27.13,WNW,292,6.0,10.0,34,0.00,,,0.00,Rainwise IP-100,2013-10-11 23:20:00,
2013-10-11 17:25:00,52.0,26.0,27.13,NW,315,2.0,9.0,36,0.00,,,0.00,Rainwise IP-100,2013-10-11 23:25:00,
2013-10-11 17:30:00,52.0,26.0,27.13,NNW,337,5.0,9.0,35,0.00,,,0.00,Rainwise IP-100,2013-10-11 23:30:00,
2013-10-11 17:35:00,53.0,26.0,27.13,WNW,292,3.0,8.0,34,0.00,,,0.00,Rainwise IP-100,2013-10-11 23:35:00,
2013-10-11 17:40:00,53.0,26.0,27.14,WNW,292,2.0,7.0,35,0.00,,,0.00,Rainwise IP-100,2013-10-11 23:40:00,
2013-10-11 17:45:00,53.0,26.0,27.14,WNW,292,0.0,9.0,35,0.00,,,0.00,Rainwise IP-100,2013-10-11 23:45:00,
2013-10-11 17:50:00,53.0,26.0,27.14,West,270,6.0,6.0,34,0.00,,,0.00,Rainwise IP-100,2013-10-11 23:50:00,
2013-10-11 17:55:00,53.0,26.0,27.14,NW,315,2.0,6.0,36,0.00,,,0.00,Rainwise IP-100,2013-10-11 23:55:00,
2013-10-11 18:00:00,52.0,26.0,27.13,NW,315,3.0,7.0,37,0.00,,,0.00,Rainwise IP-100,2013-10-12 00:00:00,
2013-10-11 18:05:00,51.0,26.0,27.13,WNW,292,5.0,7.0,37,0.00,,,0.00,Rainwise IP-100,2013-10-12 00:05:00,
2013-10-11 18:10:00,51.0,26.0,27.14,WNW,292,4.0,6.0,38,0.00,,,0.00,Rainwise IP-100,2013-10-12 00:10:00,
2013-10-11 18:15:00,51.0,28.0,27.14,WNW,292,3.0,6.0,39,0.00,,,0.00,Rainwise IP-100,2013-10-12 00:15:00,
2013-10-11 18:20:00,51.0,28.0,27.13,NW,315,1.0,7.0,40,0.00,,,0.00,Rainwise IP-100,2013-10-12 00:20:00,
2013-10-11 18:25:00,50.0,26.0,27.13,WNW,292,2.0,6.0,40,0.00,,,0.00,Rainwise IP-100,2013-10-12 00:25:00,
2013-10-11 18:30:00,50.0,28.0,27.13,WNW,292,2.0,3.0,41,0.00,,,0.00,Rainwise IP-100,2013-10-12 00:30:00,
2013-10-11 18:35:00,49.0,28.0,27.13,WNW,292,4.0,5.0,42,0.00,,,0.00,Rainwise IP-100,2013-10-12 00:35:00,
2013-10-11 18:40:00,49.0,28.0,27.13,WNW,292,1.0,5.0,42,0.00,,,0.00,Rainwise IP-100,2013-10-12 00:40:00,
2013-10-11 18:45:00,49.0,28.0,27.13,WNW,292,0.0,3.0,43,0.00,,,0.00,Rainwise IP-100,2013-10-12 00:45:00,
2013-10-11 18:50:00,48.0,28.0,27.13,WNW,292,0.0,0.0,45,0.00,,,0.00,Rainwise IP-100,2013-10-12 00:50:00,
2013-10-11 18:55:00,48.0,28.0,27.13,WNW,292,0.0,0.0,45,0.00,,,0.00,Rainwise IP-100,2013-10-12 00:55:00,
2013-10-11 19:00:00,47.0,28.0,27.13,West,270,0.0,5.0,46,0.00,,,0.00,Rainwise IP-100,2013-10-12 01:00:00,
2013-10-11 19:05:00,47.0,28.0,27.13,West,270,1.0,4.0,46,0.00,,,0.00,Rainwise IP-100,2013-10-12 01:05:00,
2013-10-11 19:10:00,47.0,26.0,27.12,WNW,292,1.0,6.0,45,0.00,,,0.00,Rainwise IP-100,2013-10-12 01:10:00,
2013-10-11 19:15:00,47.0,28.0,27.12,WNW,292,0.0,2.0,47,0.00,,,0.00,Rainwise IP-100,2013-10-12 01:15:00,
2013-10-11 19:20:00,47.0,28.0,27.12,WNW,292,0.0,0.0,48,0.00,,,0.00,Rainwise IP-100,2013-10-12 01:20:00,
2013-10-11 19:25:00,47.0,28.0,27.12,WNW,292,0.0,1.0,48,0.00,,,0.00,Rainwise IP-100,2013-10-12 01:25:00,
2013-10-11 19:30:00,46.0,28.0,27.12,WNW,292,0.0,0.0,49,0.00,,,0.00,Rainwise IP-100,2013-10-12 01:30:00,
2013-10-11 19:35:00,46.0,29.0,27.12,SSW,202,2.0,4.0,51,0.00,,,0.00,Rainwise IP-100,2013-10-12 01:35:00,
2013-10-11 19:40:00,46.0,29.0,27.13,SSW,202,0.0,3.0,51,0.00,,,0.00,Rainwise IP-100,2013-10-12 01:40:00,
2013-10-11 19:45:00,45.0,29.0,27.13,SSW,202,0.0,0.0,52,0.00,,,0.00,Rainwise IP-100,2013-10-12 01:45:00,
2013-10-11 19:50:00,45.0,29.0,27.13,SSW,202,0.0,0.0,54,0.00,,,0.00,Rainwise IP-100,2013-10-12 01:50:00,
2013-10-11 19:55:00,45.0,29.0,27.13,SSW,202,0.0,0.0,54,0.00,,,0.00,Rainwise IP-100,2013-10-12 01:55:00,
2013-10-11 20:00:00,44.0,29.0,27.13,West,270,0.0,0.0,55,0.00,,,0.00,Rainwise IP-100,2013-10-12 02:00:00,
2013-10-11 20:05:00,44.0,29.0,27.13,West,270,0.0,0.0,56,0.00,,,0.00,Rainwise IP-100,2013-10-12 02:05:00,
2013-10-11 20:10:00,44.0,31.0,27.13,West,270,0.0,3.0,57,0.00,,,0.00,Rainwise IP-100,2013-10-12 02:10:00,
2013-10-11 20:15:00,44.0,31.0,27.13,West,270,0.0,0.0,58,0.00,,,0.00,Rainwise IP-100,2013-10-12 02:15:00,
2013-10-11 20:20:00,44.0,31.0,27.13,West,270,0.0,0.0,60,0.00,,,0.00,Rainwise IP-100,2013-10-12 02:20:00,
2013-10-11 20:25:00,43.0,31.0,27.13,West,270,0.0,0.0,61,0.00,,,0.00,Rainwise IP-100,2013-10-12 02:25:00,
2013-10-11 20:30:00,43.0,31.0,27.13,SSE,157,1.0,4.0,61,0.00,,,0.00,Rainwise IP-100,2013-10-12 02:30:00,
2013-10-11 20:35:00,43.0,31.0,27.13,SSE,157,3.0,5.0,59,0.00,,,0.00,Rainwise IP-100,2013-10-12 02:35:00,
2013-10-11 20:40:00,42.0,29.0,27.13,SSE,157,0.0,4.0,59,0.00,,,0.00,Rainwise IP-100,2013-10-12 02:40:00,
2013-10-11 20:45:00,42.0,29.0,27.13,SE,135,1.0,4.0,61,0.00,,,0.00,Rainwise IP-100,2013-10-12 02:45:00,
2013-10-11 20:50:00,41.0,29.0,27.13,SE,135,0.0,3.0,61,0.00,,,0.00,Rainwise IP-100,2013-10-12 02:50:00,
2013-10-11 20:55:00,41.0,29.0,27.13,SSE,157,3.0,4.0,63,0.00,,,0.00,Rainwise IP-100,2013-10-12 02:55:00,
2013-10-11 21:00:00,41.0,29.0,27.13,SSE,157,2.0,5.0,63,0.00,,,0.00,Rainwise IP-100,2013-10-12 03:00:00,
2013-10-11 21:05:00,40.0,29.0,27.13,SSE,157,0.0,4.0,62,0.00,,,0.00,Rainwise IP-100,2013-10-12 03:05:00,
2013-10-11 21:10:00,40.0,29.0,27.13,SSE,157,0.0,0.0,63,0.00,,,0.00,Rainwise IP-100,2013-10-12 03:10:00,
2013-10-11 21:15:00,39.0,28.0,27.13,SSE,157,0.0,3.0,64,0.00,,,0.00,Rainwise IP-100,2013-10-12 03:15:00,
2013-10-11 21:20:00,39.0,29.0,27.14,ESE,112,3.0,5.0,66,0.00,,,0.00,Rainwise IP-100,2013-10-12 03:20:00,
2013-10-11 21:25:00,40.0,29.0,27.14,East,90,2.0,6.0,64,0.00,,,0.00,Rainwise IP-100,2013-10-12 03:25:00,
2013-10-11 21:30:00,40.0,29.0,27.13,East,90,2.0,5.0,62,0.00,,,0.00,Rainwise IP-100,2013-10-12 03:30:00,
2013-10-11 21:35:00,40.0,29.0,27.13,ESE,112,2.0,5.0,62,0.00,,,0.00,Rainwise IP-100,2013-10-12 03:35:00,
2013-10-11 21:40:00,40.0,28.0,27.13,ENE,67,2.0,6.0,61,0.00,,,0.00,Rainwise IP-100,2013-10-12 03:40:00,
2013-10-11 21:45:00,40.0,28.0,27.13,West,270,2.0,5.0,61,0.00,,,0.00,Rainwise IP-100,2013-10-12 03:45:00,
2013-10-11 21:50:00,40.0,29.0,27.13,ENE,67,5.0,5.0,63,0.00,,,0.00,Rainwise IP-100,2013-10-12 03:50:00,
2013-10-11 21:55:00,40.0,29.0,27.13,North,360,3.0,5.0,62,0.00,,,0.00,Rainwise IP-100,2013-10-12 03:55:00,
2013-10-11 22:00:00,40.0,29.0,27.13,ENE,67,2.0,6.0,62,0.00,,,0.00,Rainwise IP-100,2013-10-12 04:00:00,
2013-10-11 22:01:00,40.0,29.0,27.13,ENE,67,4.0,6.0,62,0.00,,,0.00,Rainwise IP-100,2013-10-12 04:01:00,
2013-10-11 22:06:00,40.0,28.0,27.13,NE,45,4.0,6.0,61,0.00,,,0.00,Rainwise IP-100,2013-10-12 04:06:00,
2013-10-11 22:11:00,41.0,29.0,27.13,ENE,67,4.0,7.0,60,0.00,,,0.00,Rainwise IP-100,2013-10-12 04:11:00,
2013-10-11 22:16:00,41.0,29.0,27.13,ESE,112,4.0,7.0,60,0.00,,,0.00,Rainwise IP-100,2013-10-12 04:16:00,
2013-10-11 22:21:00,40.0,28.0,27.13,NE,45,5.0,6.0,60,0.00,,,0.00,Rainwise IP-100,2013-10-12 04:21:00,
2013-10-11 22:26:00,40.0,28.0,27.13,ENE,67,1.0,7.0,60,0.00,,,0.00,Rainwise IP-100,2013-10-12 04:26:00,
2013-10-11 22:31:00,40.0,28.0,27.13,East,90,6.0,8.0,60,0.00,,,0.00,Rainwise IP-100,2013-10-12 04:31:00,
2013-10-11 22:36:00,40.0,28.0,27.13,ESE,112,2.0,10.0,61,0.00,,,0.00,Rainwise IP-100,2013-10-12 04:36:00,
2013-10-11 22:41:00,40.0,28.0,27.13,East,90,3.0,7.0,61,0.00,,,0.00,Rainwise IP-100,2013-10-12 04:41:00,
2013-10-11 22:46:00,40.0,28.0,27.13,SSE,157,2.0,8.0,61,0.00,,,0.00,Rainwise IP-100,2013-10-12 04:46:00,
2013-10-11 22:51:00,39.0,28.0,27.13,SSE,157,3.0,5.0,63,0.00,,,0.00,Rainwise IP-100,2013-10-12 04:51:00,
2013-10-11 22:56:00,39.0,28.0,27.13,SE,135,1.0,6.0,63,0.00,,,0.00,Rainwise IP-100,2013-10-12 04:56:00,
2013-10-11 23:01:00,39.0,28.0,27.14,East,90,2.0,6.0,64,0.00,,,0.00,Rainwise IP-100,2013-10-12 05:01:00,
2013-10-11 23:06:00,39.0,28.0,27.14,ESE,112,3.0,7.0,64,0.00,,,0.00,Rainwise IP-100,2013-10-12 05:06:00,
2013-10-11 23:11:00,38.0,28.0,27.14,NE,45,1.0,6.0,65,0.00,,,0.00,Rainwise IP-100,2013-10-12 05:11:00,
2013-10-11 23:16:00,38.0,28.0,27.14,ESE,112,2.0,4.0,67,0.00,,,0.00,Rainwise IP-100,2013-10-12 05:16:00,
2013-10-11 23:21:00,37.0,28.0,27.15,ESE,112,2.0,5.0,69,0.00,,,0.00,Rainwise IP-100,2013-10-12 05:21:00,
2013-10-11 23:26:00,37.0,28.0,27.15,East,90,2.0,4.0,70,0.00,,,0.00,Rainwise IP-100,2013-10-12 05:26:00,
2013-10-11 23:31:00,36.0,28.0,27.15,East,90,1.0,3.0,71,0.00,,,0.00,Rainwise IP-100,2013-10-12 05:31:00,
2013-10-11 23:36:00,36.0,28.0,27.15,East,90,0.0,2.0,71,0.00,,,0.00,Rainwise IP-100,2013-10-12 05:36:00,
2013-10-11 23:41:00,36.0,28.0,27.15,ESE,112,0.0,2.0,72,0.00,,,0.00,Rainwise IP-100,2013-10-12 05:41:00,
2013-10-11 23:46:00,35.0,28.0,27.15,ESE,112,0.0,0.0,73,0.00,,,0.00,Rainwise IP-100,2013-10-12 05:46:00,
2013-10-11 23:51:00,35.0,28.0,27.15,ESE,112,0.0,0.0,74,0.00,,,0.00,Rainwise IP-100,2013-10-12 05:51:00,
2013-10-11 23:56:00,34.0,28.0,27.15,ENE,67,0.0,2.0,77,0.00,,,0.00,Rainwise IP-100,2013-10-12 05:56:00,